Find Starlink 33803

NORAD ID: 63517 Int'l Des: 2025-071 Owner: SPXS Country: US Constellation: starlink operational
LEOCIRCULAR

实时位置

正在加载3D地球...

关于 Starlink 33803

正在加载描述...

即将过境

Passes for default location (London). Set your location on the main map for personalized predictions.

高度历史

Loading altitude history...

两行轨道根数

1 63517U 25071AA 26104.88949031 .00016865 00000-0 58005-3 0 9999
2 63517 53.1614 331.6325 0001619 91.5681 268.5505 15.30210435 58316
Epoch: Apr 14, 2026 • Age: 12 hours

当前状态

高度 489.8 km
速度 7.62 km/s
星下点 -41.44°S, 153.29°W
发射日期 Apr 7, 2025
运行时间 1 years
类型 internet

技术详情

分类 Payload
质量 575.00 kg
干质量 530.00 kg
总质量 575.00 kg
长度 0.30 m
直径 4.10 m
跨度 29.00 m
形状 Box + pan
制造商 SPXS
平台类型 Starlink V2MO
阶段状态 In Orbit
所有者/国家 SPXS/US

Most Searched